COSMOS 2251 DEB, 47073

Orbit data source: Space-Track

COSMOS 2251 DEB, 47073 is space debris in LEO originally from a launch on Wed, 16 Jun 1993 UTC launched from the Plesetsk Missile And Space Complex (PKMTR). The debris from Iridium 33, an American commercial communications satellite, has been tracked extensively since its accidental collision with the defunct Russian satellite Cosmos 2251 in 2009. This event, occurring at high speed in low Earth orbit (LEO), generated thousands of pieces of space debris, significantly increasing the risk of further collisions. The Iridium 33 debris cloud has impacted space traffic management and orbital debris mitigation strategies, making it a subject of ongoing study in space situational awareness.

Loading next visibility...
COSMOS 2251 DEB details
Identifier
47073, 1993-036BYD
Orbit
LEO
Last TLE update3 weeks ago
Origin
Flag of CISKVR (CIS)
ManufacturerUnknown
MissionSpacecraft
Bus & MotorUnknown
MassUnknown
Launch date (UTC)
1993-06-16 (31 years ago)
Launch vehicleUnknown
Launch site
Plesetsk Missile And Space Complex (PKMTR)
Object type
Payload
Rocket body
Debris
Shape & HBRUnknown
Radar Cross SectionSmall (<0.1 m²)

Expand to show TLE details & history

TLE from 3 weeks ago
0 COSMOS 2251 DEB
1 47073U 93036BYD 24319.28145474  .00001652  00000-0  94778-3 0  9998
2 47073  74.0840 165.8670 0164200 299.3381  59.1437 14.03613123548388
Epoch: 2024-11-14T06:45Z
Definitive object data (Epoch: 2024-11-14T06:45:17.689Z)
Latitude0.00002°
Longitude10.67739°
Altitude824.201 km
Speed7.472 km/s
True Right ascension11h 03m 28s
True Declination0° 00' 00"
Sunlit
Object was in daylight at TLE epoch
Visualization TLE readout
Latitude50.16856°
Longitude-6.07872°
Altitude996.594 km
Speed7.303 km/s
Apparent Right ascension14h 47m 48s
Apparent Declination25° 33' 29"
Sunlit
Object is in daylight
Visualization observer readout
Local Sidereal Time07:17:15
Azimuth56.375° ENE
Elevation0.601°
Doppler factor1
Orbital elements
Apogee altitude998.127 km
Perigee altitude759.804 km
Semi-major axis7,257.102 km
Eccentricity0.01642
Inclination74.084°
RAAN165.867°
Arg. of periapsis299.3381°
True anomaly60.77592°
Mean anomaly59.1437°
Eccentric anomaly59.95811°
Mean motion3.51074 °/min
BSTAR0.00094778
Orbital period102.54 mins
Loading maneuver chart data...

COSMOS 2251 DEB Visibility forecast

Observer location: undefined°, undefined

Span
Click to sort rows by Start time (UTC) header in descending order
Start Az.
Max El. time (UTC)
Max El. Az.
Max El.
End time (UTC)
End Az.
10 mins2024-12-05 10:53:02.973Z170.959° S2024-12-05 10:58:02.973Z98.744° ESE36.846°2024-12-05 11:03:02.973Z32.925° NE
9 mins2024-12-05 12:39:02.973Z253.706° W2024-12-05 12:43:02.973Z305.75° NW25.161°2024-12-05 12:48:02.973Z357.862° N
5 mins2024-12-05 19:55:02.973Z29.926° NE2024-12-05 19:57:02.973Z51.825° ENE15.987°2024-12-05 20:00:02.973Z84.078° E
10 mins2024-12-05 21:38:02.973Z339.062° N2024-12-05 21:42:02.973Z316.137° NNW44.148°2024-12-05 21:48:02.973Z165.992° S
|